North Las Vegas, NV

6:27 PM PST on November 20, 2017 (GMT -0800)
North Las Vegas

Weather History for KVGT - September, 2017

Change the Weather History Date:

Wednesday, September 13, 2017

  Actual Average Record
Temperature  
Mean Temperature 90 °F 82 °F  
Max Temperature 99 °F 94 °F 102 °F (2007)
Min Temperature 80 °F 70 °F 61 °F (2005)
Degree Days  
Heating Degree Days 0 0  
Month to date heating degree days 0 0  
Since 1 July heating degree days 0 0  
Cooling Degree Days 25 17  
Month to date cooling degree days 312 251  
Year to date cooling degree days 3289 2897  
Growing Degree Days 39 (Base 50)    
Moisture  
Dew Point 48 °F    
Average Humidity 31    
Maximum Humidity 45    
Minimum Humidity 17    
Precipitation  
Precipitation 0.00 in 0.01 in 0.52 in (2011)
Month to date precipitation 0.01 0.22  
Year to date precipitation 2.72 3.82  
Sea Level Pressure  
Sea Level Pressure 29.74 in    
Wind  
Wind Speed 7 mph (NNW)    
Max Wind Speed 24 mph    
Max Gust Speed 31 mph    
Visibility 10 miles    
Events Thunderstorm    
T = Trace of Precipitation, MM = Missing Value Source: NWS Daily Summary

Daily Weather History Graph

Daily Weather History Graph

Search for Another Location

Airport or City:

Trip Planner

Search our weather history database for the weather conditions in past years. The results will help you decide how hot, cold, wet, or windy it might be!

Date:

Astronomy

Sep. 13, 2017 Rise Set
Actual Time 6:21 AM PDT 6:50 PM PDT
Civil Twilight 5:56 AM PDT 7:16 PM PDT
Nautical Twilight 5:25 AM PDT 7:46 PM PDT
Astronomical Twilight 4:54 AM PDT 8:17 PM PDT
Moon No Moon Rise 2:03 PM PDT (9/13)
Length of Visible Light 13h 20m
Length of Day
12h 28m
Last Quarter, 44% of the Moon is Illuminated
Sep 13
Last Quarter
Sep 19
New
Sep 27
First Quarter
Oct 5
Full
Oct 12
Last Quarter

Hourly Weather History & Observations

Time (PDT) Temp. Heat Index Dew Point Humidity Pressure Visibility Wind Dir Wind Speed Gust Speed Precip Events Conditions
12:53 AM 88.0 °F - 45.0 °F 22% 29.79 in 10.0 mi NNW 11.5 mph - N/A   Clear
1:53 AM 86.0 °F - 46.0 °F 25% 29.80 in 10.0 mi WNW 5.8 mph - N/A   Clear
2:53 AM 84.0 °F - 46.9 °F 27% 29.78 in 10.0 mi NW 10.4 mph - N/A   Clear
3:53 AM 82.9 °F - 46.9 °F 28% 29.78 in 10.0 mi NNW 6.9 mph - N/A   Clear
4:53 AM 82.0 °F - 48.0 °F 30% 29.80 in 10.0 mi NNW 3.5 mph - N/A   Clear
5:53 AM 81.0 °F - 46.9 °F 30% 29.81 in 10.0 mi North 4.6 mph - N/A   Clear
6:53 AM 82.9 °F - 46.9 °F 28% 29.82 in 10.0 mi North 6.9 mph - N/A   Clear
7:53 AM 84.0 °F - 50.0 °F 31% 29.82 in 10.0 mi Calm Calm - N/A   Scattered Clouds
8:53 AM 87.1 °F - 48.9 °F 27% 29.83 in 10.0 mi Variable 3.5 mph - N/A   Partly Cloudy
9:53 AM 91.0 °F - 48.0 °F 23% 29.83 in 10.0 mi ENE 4.6 mph - N/A   Clear
10:53 AM 93.9 °F - 46.0 °F 19% 29.82 in 10.0 mi East 11.5 mph 19.6 mph N/A   Clear
11:53 AM 93.9 °F - 46.9 °F 20% 29.81 in 10.0 mi East 12.7 mph - N/A   Mostly Cloudy
12:53 PM 93.9 °F - 46.0 °F 19% 29.79 in 10.0 mi East 8.1 mph - N/A   Clear
1:53 PM 96.1 °F - 46.0 °F 18% 29.75 in 10.0 mi Variable 4.6 mph - N/A   Clear
2:53 PM 97.0 °F - 45.0 °F 17% 29.72 in 10.0 mi Variable 3.5 mph - N/A   Mostly Cloudy
3:38 PM 96.1 °F - 45.0 °F 17% 29.74 in 10.0 mi SE 5.8 mph - N/A Thunderstorm Thunderstorm
3:53 PM 96.1 °F - 45.0 °F 17% 29.70 in 10.0 mi SSE 10.4 mph - N/A Thunderstorm Partly Cloudy
4:12 PM 96.1 °F - 45.0 °F 17% 29.72 in 10.0 mi ESE 9.2 mph - N/A   Partly Cloudy
4:18 PM 96.1 °F - 45.0 °F 17% 29.72 in 10.0 mi South 11.5 mph - N/A Thunderstorm Thunderstorm
4:38 PM 96.1 °F - 45.0 °F 17% 29.72 in 10.0 mi South 8.1 mph 16.1 mph N/A   Partly Cloudy
4:51 PM 96.8 °F - 44.6 °F 17% 29.72 in 10.0 mi Variable 4.6 mph - N/A Thunderstorm Clear
4:53 PM 96.1 °F - 45.0 °F 17% 29.68 in 10.0 mi North - - N/A Thunderstorm Clear
5:01 PM 96.1 °F - 45.0 °F 17% 29.71 in 10.0 mi West 3.5 mph - N/A Thunderstorm Thunderstorm
5:40 PM 95.0 °F - 46.0 °F 19% 29.70 in 10.0 mi Variable 3.5 mph - N/A   Clear
5:53 PM 93.9 °F - 48.0 °F 21% 29.66 in 10.0 mi Variable 3.5 mph - N/A   Clear
6:53 PM 93.0 °F - 48.9 °F 22% 29.66 in 10.0 mi West 6.9 mph - N/A   Clear
7:53 PM 91.0 °F - 48.0 °F 23% 29.66 in 10.0 mi NNW 5.8 mph - N/A   Clear
8:53 PM 87.1 °F - 51.1 °F 29% 29.68 in 10.0 mi WNW 16.1 mph - N/A   Partly Cloudy
9:53 PM 82.9 °F - 52.0 °F 34% 29.69 in 10.0 mi North 9.2 mph - N/A   Clear
10:53 PM 81.0 °F 80.8 °F 55.9 °F 42% 29.69 in 10.0 mi West 6.9 mph - N/A   Clear
11:06 PM 81.0 °F 81.0 °F 57.0 °F 44% 29.73 in 10.0 mi WNW 8.1 mph - N/A Thunderstorm Clear
11:21 PM 81.0 °F 81.0 °F 57.0 °F 44% 29.73 in 10.0 mi West 9.2 mph - N/A   Clear
11:53 PM 81.0 °F 81.1 °F 57.9 °F 45% 29.70 in 10.0 mi Calm Calm - N/A   Clear